Weather in Taezhnyy

Russia / Krasnoyarsk Krai     58°39′41″N   100°28′54″E
temp.,
°C
wind,
m/s
gust,
m/s
humid.,
%
clouds,
%
prec.,
mm/h
press.,
hPa
HPBL,
m
22 october, fri
fri2201:000ssw218949 0.0 101713
04:00−1ssw118940 0.0 101611
07:00−1s228985 0.0 101713
10:00+4ssw256458 0.0 1016186
13:00+9sw374759 0.0 1015420
16:00+6ssw2263100 0.0 101546
19:00+3ssw227489 0.0 101621
22:00+2ssw227788 0.0 101626
23 october, sat
sat2301:00+1sw247338 0.0 101670
04:00+1wsw247569 0.0 101784
07:00+3w51288100 0.0 1019738
10:00+4wsw51176100 0.4 10201163
13:00+4wsw5106889 0.4 10201227
16:00+3wsw5106497 0.1 10201348
19:00+2sw51172100 0.1 1020891
22:00+1sw51369100 0.0 1018827
24 october, sun
sun2401:00+1ssw5137512 0.0 1016776
04:00+1ssw41278100 0.0 1013782
07:000ssw51395100 0.5 1011910
10:00+1sw51496100 0.8 1010817
13:00+2sw61396100 1.1 10081024
16:00+3sw61396100 0.2 10081071
19:00+3sw61496100 0.5 10081052
22:00+3wsw61496100 0.5 10081248
25 october, mon
mon2501:00+3w61396100 1.0 10091134
04:00+3w6128572 0.3 10111111
07:00+2w51192100 0.3 10141017
10:00+2w51077100 0.0 10161150
13:00+2wsw4108688 0.1 1016839
16:00+2wsw4982100 0.0 1016612
19:00+1s2887100 0.0 1014312
22:00+1sse41298100 0.7 1010584
26 october, tue
tue2601:00+4sw51596100 5.9 10041318
04:00+5w7157644 0.6 10041280
07:00+3w71477100 0.8 10081270
10:00+3w61275100 0.0 10121287
13:00+3w51081100 0.1 10141039
16:00+2w498374 0.1 1017638
19:00−1w229582 0.1 101928
22:00+1sw128296 0.0 101936